Location: La Fredeussais
(48.1780°N, 1.3980°W)
Time: 18:47:13
(UTC+00:00)

ERS-1 Rocket - Pass Details

Date: 09 May 2021
Orbit: 753 x 757 km, 98.4° (Epoch: 21 June)

Event Time Altitude Azimuth Distance (km) Brightness Sun altitude
Exits shadow 21:50:42 28° 178° (S) 1,395 3.9 -18.0°
Maximum altitude 21:53:22 71° 257° (WSW) 799 3.1 -18.2°
Drops below altitude 10° 21:58:25 10° 342° (NNW) 2,293 6.6 -18.7°
Sets 22:00:44 0° 345° (NNW) 3,224 7.7 -18.9°
